EWG1YP EDDB-EDDL

Flight info

Callsign EWG1YP
Flight time 0h 52m
Altitude 24000
Route SUKIP3Q/06R SUKIP Y206 BUREL/N0447F320 P203 HLZ L980 SAS DCT PIROT T851 DENOL/N0423F260 T851 HMM/N0411F240 T851 HALME HALME1A
Aircraft A320/M-SDE3FGHIRWY/LB1

Departure

Time 2026-05-07 17:01
Airport Berlin Brandenburg Airport (EDDB)

Arrival

Time 2026-05-07 17:53
Airport Düsseldorf Airport (EDDL)
Time Latitude Longitude Altitude Speed Heading
2026-05-07 16:36 52.36138 13.50752 155 ft 0 kts 69°
2026-05-07 16:50 52.36137 13.50748 154 ft 1 kts 69°
2026-05-07 16:50 52.36131 13.50721 154 ft 3 kts 69°
2026-05-07 16:50 52.36124 13.50690 154 ft 3 kts 69°
2026-05-07 16:50 52.36119 13.50670 154 ft 3 kts 71°
2026-05-07 16:51 52.36115 13.50639 154 ft 3 kts 95°
2026-05-07 16:51 52.36119 13.50612 154 ft 3 kts 135°
2026-05-07 16:51 52.36129 13.50600 154 ft 1 kts 159°
2026-05-07 16:51 52.36129 13.50599 154 ft 0 kts 159°
2026-05-07 16:53 52.36123 13.50603 154 ft 3 kts 159°
2026-05-07 16:54 52.36100 13.50618 154 ft 3 kts 159°
2026-05-07 16:54 52.36050 13.50650 154 ft 10 kts 159°
2026-05-07 16:54 52.35985 13.50690 154 ft 10 kts 159°
2026-05-07 16:54 52.35940 13.50718 154 ft 6 kts 159°
2026-05-07 16:55 52.35907 13.50738 154 ft 4 kts 159°
2026-05-07 16:55 52.35878 13.50757 154 ft 6 kts 158°
2026-05-07 16:55 52.35832 13.50779 154 ft 8 kts 179°
2026-05-07 16:55 52.35794 13.50711 154 ft 10 kts 246°
2026-05-07 16:56 52.35765 13.50593 154 ft 12 kts 248°
2026-05-07 16:56 52.35732 13.50447 154 ft 15 kts 248°
2026-05-07 16:56 52.35657 13.50131 154 ft 13 kts 249°
2026-05-07 16:57 52.35626 13.49996 154 ft 12 kts 249°
2026-05-07 16:57 52.35595 13.49873 154 ft 15 kts 247°
2026-05-07 16:57 52.35547 13.49668 154 ft 20 kts 249°
2026-05-07 16:57 52.35492 13.49444 154 ft 22 kts 248°
2026-05-07 16:58 52.35436 13.49204 154 ft 23 kts 249°
2026-05-07 16:58 52.35388 13.49002 154 ft 19 kts 249°
2026-05-07 16:58 52.35339 13.48794 154 ft 20 kts 249°
2026-05-07 16:58 52.35284 13.48565 154 ft 17 kts 249°
2026-05-07 16:59 52.35195 13.48493 154 ft 17 kts 158°
2026-05-07 16:59 52.35102 13.48610 154 ft 18 kts 105°
2026-05-07 16:59 52.35088 13.48753 154 ft 13 kts 98°
2026-05-07 16:59 52.35073 13.48934 154 ft 20 kts 96°
2026-05-07 17:00 52.35117 13.49266 154 ft 52 kts 69°
2026-05-07 17:00 52.35332 13.50171 155 ft 116 kts 69°
2026-05-07 17:00 52.35685 13.51669 164 ft 164 kts 72°
2026-05-07 17:00 52.35987 13.53451 705 ft 166 kts 92°
2026-05-07 17:01 52.35572 13.55188 1409 ft 172 kts 131°
2026-05-07 17:01 52.34564 13.56424 1874 ft 194 kts 155°
2026-05-07 17:01 52.33191 13.56460 2402 ft 207 kts 198°
2026-05-07 17:01 52.31907 13.55219 2811 ft 225 kts 218°
2026-05-07 17:02 52.30628 13.53524 3182 ft 248 kts 218°
2026-05-07 17:02 52.29227 13.51667 3704 ft 268 kts 218°
2026-05-07 17:02 52.27769 13.49720 4601 ft 272 kts 223°
2026-05-07 17:02 52.26662 13.47222 5500 ft 275 kts 248°
2026-05-07 17:03 52.26277 13.44177 6373 ft 277 kts 270°
2026-05-07 17:03 52.26283 13.41023 7219 ft 280 kts 271°
2026-05-07 17:03 52.26290 13.37829 8088 ft 282 kts 271°
2026-05-07 17:03 52.26289 13.34649 8943 ft 286 kts 270°
2026-05-07 17:04 52.26283 13.31397 9824 ft 288 kts 270°
2026-05-07 17:04 52.26275 13.28101 10482 ft 298 kts 270°
2026-05-07 17:04 52.26268 13.24586 10727 ft 321 kts 270°
2026-05-07 17:04 52.26262 13.20812 10926 ft 344 kts 270°
2026-05-07 17:05 52.26252 13.16771 11069 ft 367 kts 269°
2026-05-07 17:05 52.26242 13.12489 11211 ft 387 kts 269°
2026-05-07 17:05 52.26231 13.08029 11656 ft 395 kts 269°
2026-05-07 17:05 52.26205 13.03522 12263 ft 399 kts 268°
2026-05-07 17:06 52.26091 12.98990 12886 ft 401 kts 266°
2026-05-07 17:06 52.25907 12.94422 13504 ft 404 kts 265°
2026-05-07 17:06 52.25685 12.89824 14026 ft 409 kts 266°
2026-05-07 17:06 52.25454 12.85168 14508 ft 413 kts 266°
2026-05-07 17:07 52.25231 12.80483 15029 ft 416 kts 266°
2026-05-07 17:07 52.25019 12.75764 15543 ft 418 kts 266°
2026-05-07 17:07 52.24816 12.71007 16054 ft 421 kts 266°
2026-05-07 17:07 52.24618 12.66237 16562 ft 423 kts 267°
2026-05-07 17:08 52.24418 12.61425 17063 ft 426 kts 267°
2026-05-07 17:08 52.24214 12.56595 17566 ft 428 kts 267°
2026-05-07 17:08 52.24005 12.51739 18059 ft 430 kts 267°
2026-05-07 17:08 52.23789 12.46852 18512 ft 433 kts 267°
2026-05-07 17:09 52.23573 12.42001 18910 ft 435 kts 266°
2026-05-07 17:09 52.23352 12.37079 19322 ft 437 kts 266°
2026-05-07 17:09 52.23128 12.32106 19727 ft 439 kts 266°
2026-05-07 17:09 52.22903 12.27132 20110 ft 441 kts 266°
2026-05-07 17:10 52.22678 12.22127 20481 ft 443 kts 266°
2026-05-07 17:10 52.22454 12.17106 20843 ft 445 kts 266°
2026-05-07 17:10 52.22226 12.12051 21196 ft 448 kts 266°
2026-05-07 17:10 52.21994 12.06973 21560 ft 450 kts 266°
2026-05-07 17:11 52.21756 12.01872 21903 ft 452 kts 266°
2026-05-07 17:11 52.21512 11.96752 22243 ft 454 kts 266°
2026-05-07 17:11 52.21264 11.91609 22570 ft 456 kts 266°
2026-05-07 17:11 52.21012 11.86451 22934 ft 456 kts 266°
2026-05-07 17:12 52.20759 11.81292 23304 ft 457 kts 266°
2026-05-07 17:12 52.20505 11.76122 23618 ft 459 kts 266°
2026-05-07 17:12 52.20251 11.70910 23879 ft 461 kts 266°
2026-05-07 17:12 52.19993 11.65708 24039 ft 462 kts 266°
2026-05-07 17:13 52.19730 11.60451 24079 ft 466 kts 266°
2026-05-07 17:13 52.19465 11.55171 24078 ft 467 kts 266°
2026-05-07 17:13 52.19200 11.49966 24082 ft 467 kts 266°
2026-05-07 17:13 52.18926 11.44683 24084 ft 467 kts 266°
2026-05-07 17:14 52.18647 11.39411 24088 ft 467 kts 265°
2026-05-07 17:14 52.18369 11.34144 24086 ft 466 kts 265°
2026-05-07 17:14 52.18091 11.28891 24086 ft 465 kts 265°
2026-05-07 17:14 52.17812 11.23655 24088 ft 465 kts 265°
2026-05-07 17:15 52.17530 11.18403 24087 ft 465 kts 265°
2026-05-07 17:15 52.17245 11.13169 24087 ft 464 kts 265°
2026-05-07 17:15 52.16956 11.07925 24090 ft 464 kts 265°
2026-05-07 17:15 52.16666 11.02695 24091 ft 464 kts 265°
2026-05-07 17:16 52.16375 10.97446 24093 ft 464 kts 265°
2026-05-07 17:16 52.16081 10.92198 24093 ft 464 kts 265°
2026-05-07 17:16 52.15782 10.86961 24094 ft 464 kts 265°
2026-05-07 17:16 52.15483 10.81728 24094 ft 464 kts 265°
2026-05-07 17:17 52.15178 10.76492 24093 ft 464 kts 265°
2026-05-07 17:17 52.14878 10.71329 24093 ft 464 kts 265°
2026-05-07 17:17 52.14574 10.66100 24091 ft 464 kts 265°
2026-05-07 17:17 52.14268 10.60873 24091 ft 464 kts 264°
2026-05-07 17:18 52.13958 10.55644 24091 ft 464 kts 264°
2026-05-07 17:18 52.13645 10.50424 24091 ft 464 kts 264°
2026-05-07 17:18 52.13331 10.45199 24089 ft 464 kts 264°
2026-05-07 17:18 52.13015 10.39969 24087 ft 464 kts 264°
2026-05-07 17:19 52.12695 10.34757 24086 ft 464 kts 264°
2026-05-07 17:19 52.12372 10.29536 24073 ft 464 kts 264°
2026-05-07 17:19 52.12047 10.24309 24086 ft 464 kts 264°
2026-05-07 17:19 52.11721 10.19078 24086 ft 464 kts 264°
2026-05-07 17:20 52.11395 10.13858 24086 ft 464 kts 264°
2026-05-07 17:20 52.11065 10.08632 24087 ft 464 kts 264°
2026-05-07 17:20 52.10731 10.03409 24090 ft 464 kts 264°
2026-05-07 17:20 52.10392 9.98190 24090 ft 464 kts 264°
2026-05-07 17:21 52.10051 9.92958 24086 ft 464 kts 264°
2026-05-07 17:21 52.09711 9.87748 24085 ft 464 kts 264°
2026-05-07 17:21 52.09370 9.82526 24089 ft 464 kts 264°
2026-05-07 17:21 52.09028 9.77299 24092 ft 464 kts 264°
2026-05-07 17:22 52.08683 9.72075 24094 ft 464 kts 264°
2026-05-07 17:22 52.08338 9.66872 24097 ft 464 kts 264°
2026-05-07 17:22 52.07988 9.61666 24092 ft 464 kts 264°
2026-05-07 17:22 52.07633 9.56451 24089 ft 463 kts 263°
2026-05-07 17:23 52.07277 9.51258 24088 ft 463 kts 263°
2026-05-07 17:23 52.06916 9.46055 24088 ft 463 kts 263°
2026-05-07 17:23 52.06553 9.40843 24080 ft 463 kts 263°
2026-05-07 17:23 52.06190 9.35638 24086 ft 463 kts 263°
2026-05-07 17:24 52.05828 9.30506 24090 ft 463 kts 263°
2026-05-07 17:24 52.05458 9.25298 24091 ft 463 kts 263°
2026-05-07 17:24 52.05022 9.20106 24089 ft 463 kts 261°
2026-05-07 17:24 52.04461 9.14944 24089 ft 463 kts 259°
2026-05-07 17:25 52.03813 9.09815 24091 ft 463 kts 258°
2026-05-07 17:25 52.03124 9.04702 24089 ft 463 kts 257°
2026-05-07 17:25 52.02427 8.99579 24079 ft 463 kts 257°
2026-05-07 17:25 52.01746 8.94476 24079 ft 463 kts 258°
2026-05-07 17:26 52.01082 8.89347 24080 ft 463 kts 258°
2026-05-07 17:26 52.00436 8.84224 24079 ft 463 kts 258°
2026-05-07 17:26 51.99800 8.79089 24085 ft 463 kts 258°
2026-05-07 17:26 51.99167 8.73976 24088 ft 463 kts 258°
2026-05-07 17:27 51.98537 8.68930 24092 ft 462 kts 258°
2026-05-07 17:27 51.97886 8.63752 24092 ft 462 kts 258°
2026-05-07 17:27 51.97249 8.58720 24091 ft 462 kts 258°
2026-05-07 17:27 51.96591 8.53548 24081 ft 462 kts 258°
2026-05-07 17:28 51.95948 8.48510 24082 ft 462 kts 258°
2026-05-07 17:28 51.95127 8.43478 23946 ft 462 kts 253°
2026-05-07 17:28 51.94203 8.38493 23709 ft 460 kts 253°
2026-05-07 17:28 51.93246 8.33560 23440 ft 459 kts 252°
2026-05-07 17:29 51.92272 8.28653 23165 ft 457 kts 252°
2026-05-07 17:29 51.91289 8.23760 22848 ft 455 kts 252°
2026-05-07 17:29 51.90316 8.18908 22278 ft 451 kts 252°
2026-05-07 17:29 51.89358 8.14092 21610 ft 447 kts 252°
2026-05-07 17:30 51.88421 8.09318 20965 ft 443 kts 252°
2026-05-07 17:30 51.87498 8.04596 20329 ft 439 kts 252°
2026-05-07 17:30 51.86581 7.99908 19707 ft 435 kts 252°
2026-05-07 17:30 51.85664 7.95257 19096 ft 431 kts 252°
2026-05-07 17:31 51.84755 7.90660 18485 ft 428 kts 252°
2026-05-07 17:31 51.83847 7.86095 17836 ft 425 kts 252°
2026-05-07 17:31 51.82944 7.81576 17163 ft 421 kts 251°
2026-05-07 17:31 51.81690 7.77327 16514 ft 417 kts 238°
2026-05-07 17:32 51.80148 7.73375 15872 ft 414 kts 238°
2026-05-07 17:32 51.78610 7.69465 15233 ft 411 kts 238°
2026-05-07 17:32 51.77085 7.65601 14626 ft 406 kts 238°
2026-05-07 17:32 51.76085 7.63068 14217 ft 402 kts 238°
2026-05-07 17:33 51.74097 7.58046 13543 ft 392 kts 238°
2026-05-07 17:33 51.72636 7.54370 13029 ft 385 kts 238°
2026-05-07 17:33 51.71209 7.50775 12531 ft 378 kts 238°
2026-05-07 17:33 51.69808 7.47243 12146 ft 368 kts 238°
2026-05-07 17:34 51.68446 7.43817 11799 ft 359 kts 238°
2026-05-07 17:34 51.67119 7.40494 11554 ft 346 kts 238°
2026-05-07 17:34 51.65835 7.37285 11299 ft 335 kts 238°
2026-05-07 17:34 51.64591 7.34180 11045 ft 325 kts 238°
2026-05-07 17:35 51.63381 7.31156 10796 ft 317 kts 238°
2026-05-07 17:35 51.62201 7.28209 10545 ft 309 kts 238°
2026-05-07 17:35 51.61049 7.25331 10307 ft 302 kts 238°
2026-05-07 17:35 51.59926 7.22527 10123 ft 294 kts 238°
2026-05-07 17:36 51.59201 7.20718 10057 ft 286 kts 238°
2026-05-07 17:36 51.58127 7.18051 10077 ft 283 kts 238°
2026-05-07 17:36 51.57058 7.15395 10078 ft 284 kts 238°
2026-05-07 17:36 51.55987 7.12735 10068 ft 283 kts 238°
2026-05-07 17:37 51.54909 7.10085 10068 ft 283 kts 236°
2026-05-07 17:37 51.53766 7.07513 10063 ft 283 kts 234°
2026-05-07 17:37 51.52582 7.04990 10068 ft 283 kts 233°
2026-05-07 17:37 51.51391 7.02496 10066 ft 277 kts 233°
2026-05-07 17:38 51.50248 7.00113 10054 ft 262 kts 233°
2026-05-07 17:38 51.49171 6.97863 10056 ft 248 kts 233°
2026-05-07 17:38 51.48151 6.95722 10057 ft 243 kts 234°
2026-05-07 17:38 51.47116 6.93542 10056 ft 242 kts 233°
2026-05-07 17:39 51.46112 6.91422 10054 ft 242 kts 234°
2026-05-07 17:39 51.45092 6.89267 10063 ft 242 kts 233°
2026-05-07 17:39 51.44075 6.87114 10065 ft 243 kts 234°
2026-05-07 17:39 51.43056 6.84957 10067 ft 242 kts 234°
2026-05-07 17:40 51.42038 6.82801 10055 ft 242 kts 234°
2026-05-07 17:40 51.41016 6.80646 9913 ft 242 kts 234°
2026-05-07 17:40 51.40000 6.78509 9742 ft 242 kts 233°
2026-05-07 17:40 51.38980 6.76364 9421 ft 241 kts 234°
2026-05-07 17:41 51.37964 6.74232 9091 ft 240 kts 233°
2026-05-07 17:41 51.36951 6.72118 8783 ft 240 kts 233°
2026-05-07 17:41 51.35940 6.70003 8465 ft 238 kts 233°
2026-05-07 17:41 51.34936 6.67896 8153 ft 238 kts 233°
2026-05-07 17:42 51.33933 6.65792 7842 ft 237 kts 234°
2026-05-07 17:42 51.32947 6.63726 7541 ft 236 kts 233°
2026-05-07 17:42 51.31950 6.61640 7240 ft 236 kts 233°
2026-05-07 17:42 51.30955 6.59560 6937 ft 235 kts 233°
2026-05-07 17:43 51.29949 6.57459 6636 ft 235 kts 233°
2026-05-07 17:43 51.28971 6.55418 6340 ft 235 kts 233°
2026-05-07 17:43 51.27975 6.53345 6024 ft 234 kts 233°
2026-05-07 17:43 51.26985 6.51286 5710 ft 234 kts 233°
2026-05-07 17:44 51.25995 6.49221 5472 ft 233 kts 233°
2026-05-07 17:44 51.25009 6.47166 5318 ft 233 kts 233°
2026-05-07 17:44 51.24019 6.45112 5151 ft 233 kts 233°
2026-05-07 17:44 51.23030 6.43058 5009 ft 233 kts 233°
2026-05-07 17:45 51.22045 6.41015 4866 ft 232 kts 233°
2026-05-07 17:45 51.21058 6.38964 4703 ft 232 kts 233°
2026-05-07 17:45 51.20074 6.36928 4546 ft 232 kts 232°
2026-05-07 17:45 51.18869 6.35260 4389 ft 231 kts 204°
2026-05-07 17:46 51.17309 6.34863 4234 ft 229 kts 169°
2026-05-07 17:46 51.15828 6.35747 4041 ft 226 kts 147°
2026-05-07 17:46 51.14642 6.37321 3847 ft 220 kts 129°
2026-05-07 17:46 51.13844 6.39355 3635 ft 215 kts 110°
2026-05-07 17:47 51.13485 6.41607 3507 ft 207 kts 93°
2026-05-07 17:47 51.13546 6.43817 3378 ft 200 kts 77°
2026-05-07 17:47 51.13990 6.45884 3249 ft 196 kts 61°
2026-05-07 17:47 51.14752 6.47670 3124 ft 195 kts 51°
2026-05-07 17:48 51.15576 6.49378 3044 ft 195 kts 51°
2026-05-07 17:48 51.16400 6.51085 3002 ft 194 kts 51°
2026-05-07 17:48 51.17223 6.52794 3009 ft 194 kts 51°
2026-05-07 17:48 51.18044 6.54500 3009 ft 194 kts 51°
2026-05-07 17:49 51.18862 6.56202 3000 ft 194 kts 51°
2026-05-07 17:49 51.19686 6.57916 2843 ft 194 kts 52°
2026-05-07 17:49 51.20509 6.59630 2612 ft 195 kts 51°
2026-05-07 17:49 51.21320 6.61320 2375 ft 187 kts 51°
2026-05-07 17:50 51.22084 6.62913 2114 ft 176 kts 51°
2026-05-07 17:50 51.22807 6.64423 1890 ft 165 kts 51°
2026-05-07 17:50 51.23471 6.65809 1675 ft 151 kts 51°
2026-05-07 17:50 51.24092 6.67105 1466 ft 145 kts 51°
2026-05-07 17:51 51.24698 6.68372 1276 ft 142 kts 51°
2026-05-07 17:51 51.25292 6.69612 1063 ft 141 kts 52°
2026-05-07 17:51 51.25883 6.70847 855 ft 140 kts 52°
2026-05-07 17:51 51.26471 6.72077 678 ft 139 kts 52°
2026-05-07 17:52 51.27054 6.73300 504 ft 138 kts 53°
2026-05-07 17:52 51.27634 6.74515 320 ft 137 kts 53°
2026-05-07 17:52 51.28206 6.75715 150 ft 136 kts 53°
2026-05-07 17:52 51.28714 6.76780 127 ft 95 kts 53°
2026-05-07 17:53 51.29017 6.77419 127 ft 56 kts 52°
2026-05-07 17:53 51.29229 6.77863 134 ft 37 kts 53°
2026-05-07 17:53 51.29289 6.78125 139 ft 18 kts 112°
2026-05-07 17:53 51.29244 6.78203 137 ft 0 kts 155°
2026-05-07 17:54 51.29243 6.78203 137 ft 0 kts 155°
2026-05-07 17:54 51.29213 6.78217 137 ft 6 kts 171°
2026-05-07 17:54 51.29165 6.78194 136 ft 9 kts 224°
2026-05-07 17:55 51.29116 6.78091 132 ft 13 kts 232°
2026-05-07 17:55 51.29057 6.77968 128 ft 14 kts 232°
2026-05-07 17:55 51.29001 6.77851 128 ft 13 kts 233°
2026-05-07 17:55 51.28950 6.77742 127 ft 12 kts 233°
2026-05-07 17:56 51.28902 6.77642 128 ft 11 kts 232°
2026-05-07 17:56 51.28857 6.77550 127 ft 10 kts 232°
2026-05-07 17:56 51.28816 6.77462 128 ft 11 kts 233°
2026-05-07 17:56 51.28758 6.77339 127 ft 16 kts 232°
2026-05-07 17:57 51.28682 6.77180 124 ft 19 kts 233°
2026-05-07 17:57 51.28628 6.77065 124 ft 20 kts 232°
2026-05-07 17:57 51.28507 6.76812 124 ft 23 kts 232°
2026-05-07 17:57 51.28435 6.76663 121 ft 13 kts 232°
2026-05-07 17:58 51.28377 6.76540 123 ft 15 kts 233°
2026-05-07 17:58 51.28288 6.76497 126 ft 14 kts 189°
2026-05-07 17:58 51.28199 6.76434 127 ft 13 kts 187°
2026-05-07 17:58 51.28132 6.76421 127 ft 10 kts 186°
2026-05-07 17:59 51.28072 6.76441 127 ft 3 kts 149°
2026-05-07 17:59 51.28066 6.76447 126 ft 0 kts 147°
2026-05-07 17:59 51.28051 6.76462 125 ft 5 kts 148°
2026-05-07 17:59 51.28038 6.76476 127 ft 2 kts 144°
2026-05-07 18:00 51.28030 6.76507 128 ft 4 kts 101°
2026-05-07 18:00 51.28029 6.76528 124 ft 1 kts 93°
2026-05-07 18:00 51.28029 6.76533 124 ft 0 kts 92°